KI4NG Weather Reports


Display with metric or nautical units.
time (UTC)temp
F
wind
direction
speed
MPH
gust
MPH
rain 1hr
in
rain 24hr
in
rain mn
in
humidity
%
barometer
mb
20260505120258 56 149 0.0 1.0 0.00 0.00 0.00 79 1014.5
20260505115757 56 157 1.0 1.0 0.00 0.00 0.00 77 1014.4
20260505115255 55 162 1.0 1.0 0.00 0.00 0.00 80 1014.0
20260505114752 55 162 1.0 1.0 0.00 0.00 0.00 79 1014.3
20260505114248 55 164 1.0 2.0 0.00 0.00 0.00 79 1014.1
20260505113745 55 183 1.0 2.0 0.00 0.00 0.00 78 1014.0
20260505113241 55 156 1.0 1.0 0.00 0.00 0.00 77 1014.0
20260505112737 56 150 1.0 1.0 0.00 0.00 0.00 75 1014.0
20260505112235 55 148 0.0 0.0 0.00 0.00 0.00 77 1014.0
20260505111735 56 173 1.0 2.0 0.00 0.00 0.00 75 1014.0
20260505111231 57 175 3.0 3.0 0.00 0.00 0.00 72 1013.9
20260505110727 57 144 3.0 3.0 0.00 0.00 0.00 70 1013.8
20260505110225 57 152 1.0 1.0 0.00 0.00 0.00 74 1014.0
20260505102200 57 162 2.0 2.0 0.00 0.00 0.00 73 1013.5
20260505101659 57 139 3.0 3.0 0.00 0.00 0.00 69 1013.6
20260505101155 57 116 2.0 5.0 0.00 0.00 0.00 71 1013.5
20260505100651 57 174 4.0 6.0 0.00 0.00 0.00 70 1013.8
20260505100149 57 138 2.0 2.0 0.00 0.00 0.00 71 1013.6
20260505095644 57 190 2.0 3.0 0.00 0.00 0.00 72 1013.6
20260505095142 57 117 5.0 6.0 0.00 0.00 0.00 71 1013.4
20260505094637 57 156 3.0 3.0 0.00 0.00 0.00 71 1013.3
20260505094134 57 166 3.0 3.0 0.00 0.00 0.00 71 1013.4
20260505093630 57 154 1.0 2.0 0.00 0.00 0.00 72 1013.6
20260505093128 57 156 1.0 2.0 0.00 0.00 0.00 76 1013.7
20260505092625 57 162 2.0 2.0 0.00 0.00 0.00 71 1013.8
20260505092124 58 169 0.0 1.0 0.00 0.00 0.00 73 1013.9
20260505091620 58 163 2.0 3.0 0.00 0.00 0.00 71 1013.8
20260505091118 58 197 3.0 3.0 0.00 0.00 0.00 71 1013.8
20260505090615 58 199 3.0 3.0 0.00 0.00 0.00 72 1013.8
20260505090114 58 132 2.0 2.0 0.00 0.00 0.00 71 1013.9
20260505085610 58 164 4.0 6.0 0.00 0.00 0.00 71 1013.9
20260505085109 58 150 2.0 2.0 0.00 0.00 0.00 71 1013.8
20260505084606 59 155 2.0 3.0 0.00 0.00 0.00 69 1013.9
20260505084105 58 150 5.0 6.0 0.00 0.00 0.00 70 1013.7
20260505083602 58 110 3.0 6.0 0.00 0.00 0.00 71 1013.8
20260505083058 57 169 5.0 7.0 0.00 0.00 0.00 71 1013.9
20260505082554 57 178 2.0 2.0 0.00 0.00 0.00 73 1013.8
20260505082051 57 218 2.0 2.0 0.00 0.00 0.00 77 1013.7
20260505081547 58 166 2.0 2.0 0.00 0.00 0.00 74 1013.7
20260505081044 57 167 2.0 2.0 0.00 0.00 0.00 73 1013.6
20260505080540 57 149 0.0 1.0 0.00 0.00 0.00 74 1013.6
20260505080038 58 144 1.0 1.0 0.00 0.00 0.00 72 1013.4
20260505075533 58 143 1.0 1.0 0.00 0.00 0.00 71 1013.6
20260505075030 58 136 2.0 5.0 0.00 0.00 0.00 72 1013.6
20260505074527 58 149 1.0 2.0 0.00 0.00 0.00 72 1013.5
20260505074025 57 163 1.0 1.0 0.00 0.00 0.00 73 1013.3
20260505073522 58 176 2.0 2.0 0.00 0.00 0.00 72 1013.4
20260505073020 57 208 1.0 2.0 0.00 0.00 0.00 75 1013.2
20260505072515 58 148 1.0 2.0 0.00 0.00 0.00 73 1013.1
20260505072012 57 157 3.0 3.0 0.00 0.00 0.00 73 1013.4
20260505071507 57 188 2.0 2.0 0.00 0.00 0.00 74 1013.4
20260505071006 57 182 2.0 2.0 0.00 0.00 0.00 74 1013.2
20260505070503 58 149 1.0 2.0 0.00 0.00 0.00 74 1013.4
20260505065958 58 164 1.0 1.0 0.00 0.00 0.00 74 1013.1
20260505065455 58 159 2.0 2.0 0.00 0.00 0.00 73 1013.3
20260505064951 58 147 1.0 2.0 0.00 0.00 0.00 72 1013.2
20260505064448 59 146 2.0 2.0 0.00 0.00 0.00 72 1013.3
20260505063947 59 164 3.0 3.0 0.00 0.00 0.00 71 1013.5
20260505063443 59 131 2.0 2.0 0.00 0.00 0.00 71 1013.4
20260505062940 59 154 1.0 1.0 0.00 0.00 0.00 70 1013.7
20260505062437 60 173 2.0 3.0 0.00 0.00 0.00 70 1013.3
20260505061933 60 162 2.0 2.0 0.00 0.00 0.00 68 1013.4
20260505061432 60 177 3.0 3.0 0.00 0.00 0.00 68 1013.6
20260505060929 61 107 2.0 3.0 0.00 0.00 0.00 67 1013.8
20260505060426 61 171 3.0 5.0 0.00 0.00 0.00 67 1013.7
20260505055922 61 188 3.0 3.0 0.00 0.00 0.00 67 1013.6
20260505055418 61 159 3.0 3.0 0.00 0.00 0.00 67 1013.6
20260505054915 62 150 3.0 3.0 0.00 0.00 0.00 66 1013.7
20260505054412 61 209 7.0 10.0 0.00 0.00 0.00 66 1013.5
20260505053910 61 228 2.0 3.0 0.00 0.00 0.00 66 1013.6
20260505053407 62 181 2.0 2.0 0.00 0.00 0.00 67 1013.6
20260505052904 62 185 3.0 3.0 0.00 0.00 0.00 65 1013.4
20260505052401 62 142 5.0 6.0 0.00 0.00 0.00 65 1013.7
20260505051858 62 151 3.0 5.0 0.00 0.00 0.00 64 1013.5
20260505051355 63 189 1.0 3.0 0.00 0.00 0.00 64 1013.6
20260505050853 62 209 6.0 7.0 0.00 0.00 0.00 64 1013.4
20260505050351 62 145 2.0 3.0 0.00 0.00 0.00 65 1013.5
20260505041319 63 133 5.0 7.0 0.00 0.00 0.00 68 1012.8
20260505040816 63 188 7.0 8.0 0.00 0.00 0.00 67 1013.1
20260505040314 63 188 2.0 2.0 0.00 0.00 0.00 67 1012.8
20260505035810 63 192 1.0 2.0 0.00 0.00 0.00 68 1012.7
20260505035306 63 155 5.0 7.0 0.00 0.00 0.00 69 1012.6
20260505034803 63 182 3.0 3.0 0.00 0.00 0.00 69 1012.7
20260505034300 63 128 7.0 11.0 0.00 0.00 0.00 69 1013.0
20260505033756 63 212 1.0 2.0 0.00 0.00 0.00 70 1012.9
20260505033254 63 172 3.0 3.0 0.00 0.00 0.00 69 1013.1
20260505032752 63 156 1.0 1.0 0.00 0.00 0.00 70 1013.1
20260505032248 63 196 3.0 3.0 0.00 0.00 0.00 69 1013.2
20260505031745 63 199 3.0 5.0 0.00 0.00 0.00 69 1012.9
20260505031241 64 182 5.0 10.0 0.00 0.00 0.00 69 1012.8
20260505030738 64 164 7.0 9.0 0.00 0.00 0.00 69 1012.7
20260505030235 64 208 5.0 7.0 0.00 0.00 0.00 69 1012.9
20260505025730 64 204 7.0 8.0 0.00 0.00 0.00 69 1012.9
20260505025229 63 184 3.0 3.0 0.00 0.00 0.00 69 1012.7
20260505024727 63 175 4.0 6.0 0.00 0.00 0.00 70 1012.9
20260505024224 63 163 5.0 7.0 0.00 0.00 0.00 70 1013.1
20260505023721 63 189 3.0 3.0 0.00 0.00 0.00 70 1012.9
20260505023218 62 160 2.0 3.0 0.00 0.00 0.00 70 1012.9
20260505022715 63 154 2.0 2.0 0.00 0.00 0.00 70 1012.9
20260505022212 63 128 3.0 3.0 0.00 0.00 0.00 68 1013.0
20260505021709 62 149 2.0 2.0 0.00 0.00 0.00 71 1012.9
20260505021206 63 193 5.0 7.0 0.00 0.00 0.00 68 1013.0
20260505020701 63 197 4.0 5.0 0.00 0.00 0.00 68 1013.0
20260505020157 63 163 2.0 3.0 0.00 0.00 0.00 68 1012.8
20260505015655 64 184 3.0 3.0 0.00 0.00 0.00 67 1013.0
20260505015151 64 136 2.0 2.0 0.00 0.00 0.00 66 1013.0
20260505014648 64 180 2.0 2.0 0.00 0.00 0.00 65 1013.1
20260505014145 64 208 5.0 6.0 0.00 0.00 0.00 65 1013.0
20260505013642 64 195 2.0 2.0 0.00 0.00 0.00 65 1013.1
20260505013139 64 176 2.0 2.0 0.00 0.00 0.00 68 1013.1
20260505012638 65 150 1.0 1.0 0.00 0.00 0.00 65 1012.9
20260505012134 65 165 5.0 6.0 0.00 0.00 0.00 63 1012.8
20260505011630 65 180 1.0 2.0 0.00 0.00 0.00 65 1012.9
20260505011127 66 151 0.0 1.0 0.00 0.00 0.00 64 1012.8
20260505010622 66 149 1.0 1.0 0.00 0.00 0.00 64 1012.6
20260505010119 66 168 1.0 1.0 0.00 0.00 0.00 62 1012.8
20260505005615 67 131 1.0 1.0 0.00 0.00 0.00 63 1012.7
20260505005113 67 152 3.0 3.0 0.00 0.00 0.00 62 1012.7
20260505004610 67 127 1.0 1.0 0.00 0.00 0.00 62 1012.6
20260505004107 67 222 3.0 5.0 0.00 0.00 0.00 63 1012.5
20260505003604 67 165 2.0 2.0 0.00 0.00 0.00 62 1012.5
20260505003101 68 172 3.0 3.0 0.00 0.00 0.00 63 1012.5
20260505002556 68 134 1.0 2.0 0.00 0.00 0.00 62 1012.5
20260505002055 69 182 2.0 2.0 0.00 0.00 0.00 60 1012.3
20260505001552 69 187 2.0 3.0 0.00 0.00 0.00 59 1012.6
20260505001049 69 163 2.0 5.0 0.00 0.00 0.00 60 1012.5
20260505000547 69 103 3.0 3.0 0.00 0.00 0.00 60 1012.4
20260505000044 69 263 4.0 7.0 0.00 0.00 0.00 61 1012.6
20260504235540 70 191 3.0 5.0 0.00 0.00 0.00 60 1012.4
20260504235037 70 127 5.0 7.0 0.00 0.00 0.00 59 1012.4
20260504234534 70 168 3.0 3.0 0.00 0.00 0.00 59 1012.4
20260504234031 71 158 3.0 6.0 0.00 0.00 0.00 59 1012.3
20260504233526 71 193 4.0 8.0 0.00 0.00 0.00 59 1012.3
20260504233024 71 156 1.0 2.0 0.00 0.00 0.00 59 1012.4
20260504232521 71 115 5.0 6.0 0.00 0.00 0.00 58 1012.3
20260504232019 72 152 1.0 1.0 0.00 0.00 0.00 58 1012.4
20260504231515 72 188 6.0 8.0 0.00 0.00 0.00 56 1012.5
20260504231011 72 157 3.0 5.0 0.00 0.00 0.00 58 1012.6
20260504230508 72 198 2.0 3.0 0.00 0.00 0.00 57 1012.4
20260504230006 72 217 5.0 7.0 0.00 0.00 0.00 56 1012.4
20260504225503 72 177 4.0 6.0 0.00 0.00 0.00 56 1012.4
20260504225000 72 183 7.0 9.0 0.00 0.00 0.00 56 1012.2
20260504224456 72 184 4.0 5.0 0.00 0.00 0.00 56 1012.4
20260504223954 73 193 5.0 6.0 0.00 0.00 0.00 57 1012.5
20260504223450 73 206 4.0 5.0 0.00 0.00 0.00 56 1012.5
20260504222945 74 162 2.0 2.0 0.00 0.00 0.00 56 1012.3
20260504222443 74 188 4.0 6.0 0.00 0.00 0.00 56 1012.4
20260504221941 74 201 2.0 2.0 0.00 0.00 0.00 55 1012.5
20260504221438 74 153 2.0 5.0 0.00 0.00 0.00 55 1012.6
20260504220934 74 150 2.0 3.0 0.00 0.00 0.00 55 1012.5
20260504220431 74 248 6.0 8.0 0.00 0.00 0.00 54 1012.5
20260504215928 75 205 3.0 3.0 0.00 0.00 0.00 54 1012.3
20260504215425 75 211 1.0 1.0 0.00 0.00 0.00 53 1012.5
20260504214921 76 237 5.0 7.0 0.00 0.00 0.00 53 1012.7
20260504214418 76 183 5.0 7.0 0.00 0.00 0.00 51 1012.3
20260504213915 76 159 1.0 2.0 0.00 0.00 0.00 47 1012.2
20260504213410 75 217 2.0 3.0 0.00 0.00 0.00 46 1012.3
20260504212909 75 237 7.0 9.0 0.00 0.00 0.00 43 1012.4
20260504212404 76 193 6.0 9.0 0.00 0.00 0.00 44 1012.4
20260504211902 76 243 5.0 7.0 0.00 0.00 0.00 42 1012.5
20260504211358 76 252 7.0 9.0 0.00 0.00 0.00 43 1012.5
20260504210855 76 179 6.0 7.0 0.00 0.00 0.00 44 1012.5
20260504210352 76 200 5.0 6.0 0.00 0.00 0.00 44 1012.5
20260504205849 77 243 4.0 7.0 0.00 0.00 0.00 48 1012.7
20260504205347 76 233 3.0 5.0 0.00 0.00 0.00 45 1012.7
20260504204845 76 152 3.0 5.0 0.00 0.00 0.00 46 1012.5
20260504204343 76 140 3.0 5.0 0.00 0.00 0.00 45 1012.8
20260504203842 76 174 1.0 2.0 0.00 0.00 0.00 49 1012.8
20260504203339 76 112 3.0 5.0 0.00 0.00 0.00 45 1012.8
20260504202834 76 246 9.0 10.0 0.00 0.00 0.00 43 1012.9
20260504202332 76 198 4.0 6.0 0.00 0.00 0.00 47 1012.9
20260504201828 75 243 5.0 7.0 0.00 0.00 0.00 51 1012.7
20260504201326 74 213 5.0 6.0 0.00 0.00 0.00 53 1012.8
20260504200823 76 191 7.0 8.0 0.00 0.00 0.00 50 1013.2
20260504200320 76 273 4.0 8.0 0.00 0.00 0.00 50 1013.1
20260504195816 74 273 4.0 7.0 0.00 0.00 0.00 51 1013.2
20260504195312 74 188 3.0 5.0 0.00 0.00 0.00 52 1013.2
20260504194809 75 216 7.0 8.0 0.00 0.00 0.00 53 1013.3
20260504194305 75 248 9.0 13.0 0.00 0.00 0.00 49 1013.4
20260504193801 74 275 2.0 3.0 0.00 0.00 0.00 54 1013.5
20260504193259 74 229 3.0 3.0 0.00 0.00 0.00 52 1013.3
20260504192757 75 214 6.0 7.0 0.00 0.00 0.00 51 1013.5
20260504192254 75 230 7.0 9.0 0.00 0.00 0.00 51 1013.8
20260504191753 75 195 4.0 5.0 0.00 0.00 0.00 54 1013.6
20260504191249 75 199 3.0 5.0 0.00 0.00 0.00 52 1013.7
20260504190745 75 150 4.0 6.0 0.00 0.00 0.00 55 1013.9
20260504190242 75 228 2.0 3.0 0.00 0.00 0.00 50 1013.7
20260504185738 75 145 6.0 10.0 0.00 0.00 0.00 51 1013.5
20260504185235 75 181 5.0 7.0 0.00 0.00 0.00 54 1013.8
20260504184731 75 191 5.0 6.0 0.00 0.00 0.00 53 1013.9
20260504184227 74 244 6.0 7.0 0.00 0.00 0.00 53 1013.7
20260504183723 75 224 7.0 8.0 0.00 0.00 0.00 54 1013.9
20260504183220 75 246 4.0 5.0 0.00 0.00 0.00 52 1013.9
20260504182719 75 211 2.0 2.0 0.00 0.00 0.00 57 1014.1
20260504182215 75 216 7.0 8.0 0.00 0.00 0.00 53 1014.0
20260504181713 74 152 1.0 2.0 0.00 0.00 0.00 52 1014.3
20260504181210 74 117 3.0 3.0 0.00 0.00 0.00 52 1014.4
20260504180709 74 183 5.0 9.0 0.00 0.00 0.00 53 1014.5
20260504180207 73 200 6.0 7.0 0.00 0.00 0.00 53 1014.6
20260504175704 73 185 5.0 7.0 0.00 0.00 0.00 55 1014.5
20260504175201 74 165 3.0 5.0 0.00 0.00 0.00 54 1014.1
20260504174659 73 244 7.0 8.0 0.00 0.00 0.00 55 1014.6
20260504174156 73 158 8.0 10.0 0.00 0.00 0.00 55 1014.5
20260504173653 72 238 3.0 5.0 0.00 0.00 0.00 55 1014.5
20260504173150 72 199 4.0 5.0 0.00 0.00 0.00 57 1014.7
20260504172647 71 183 4.0 6.0 0.00 0.00 0.00 57 1014.7
20260504172143 71 206 3.0 5.0 0.00 0.00 0.00 57 1014.8
20260504171639 72 141 2.0 2.0 0.00 0.00 0.00 57 1014.9
20260504171137 71 250 6.0 9.0 0.00 0.00 0.00 57 1014.8
20260504170633 71 183 1.0 2.0 0.00 0.00 0.00 58 1015.1
20260504170131 70 254 4.0 5.0 0.00 0.00 0.00 57 1015.0
20260504151016 64 221 3.0 3.0 0.00 0.00 0.00 59 1016.5
20260504150514 64 247 8.0 9.0 0.00 0.00 0.00 60 1016.5
20260504140940 61 220 3.0 3.0 0.00 0.00 0.00 67 1016.7
20260504140436 61 170 2.0 2.0 0.00 0.00 0.00 65 1016.7
20260504130401 56 169 2.0 2.0 0.00 0.00 0.00 73 1017.2